This is the latest recevied weather packets stored in our database for station/object WD4IXD. If no packets are shown the sender has not sent any weather packets the latest 10 day(s).
| Time | Temp. | Humidity | Pressure | Rain* | Wind** | Luminosity | Snow |
|---|---|---|---|---|---|---|---|
| 1777948803 | 12.78° C | 65% | 1012.8 hPa | 0 mm | - | 0 W/m² | - |
| 1777948515 | 12.78° C | 64% | 1012.8 hPa | 0 mm | - | 0 W/m² | - |
| 1777948204 | 12.78° C | 64% | 1012.7 hPa | 0 mm | - | 0 W/m² | - |
| 1777947915 | 12.78° C | 64% | 1012.7 hPa | 0 mm | - | 0 W/m² | - |
| 1777947604 | 12.78° C | 64% | 1012.6 hPa | 0 mm | - | 0 W/m² | - |
| 1777947315 | 12.78° C | 63% | 1012.7 hPa | 0 mm | - | 0 W/m² | - |
| 1777947004 | 12.78° C | 63% | 1012.5 hPa | 0 mm | - | 0 W/m² | - |
| 1777946704 | 12.78° C | 63% | 1012.6 hPa | 0 mm | - | 0 W/m² | - |
| 1777946415 | 12.78° C | 63% | 1012.6 hPa | 0 mm | - | 0 W/m² | - |
| 1777946104 | 12.78° C | 63% | 1012.6 hPa | 0 mm | - | 0 W/m² | - |
| 1777945815 | 12.78° C | 63% | 1012.5 hPa | 0 mm | - | 5 W/m² | - |
| 1777945504 | 12.78° C | 63% | 1012.6 hPa | 0 mm | - | 5 W/m² | - |
| 1777945215 | 12.78° C | 62% | 1012.2 hPa | 0 mm | - | 12 W/m² | - |
| 1777944903 | 12.78° C | 62% | 1012 hPa | 0 mm | - | 16 W/m² | - |
| 1777944603 | 12.78° C | 63% | 1012.2 hPa | 0 mm | - | 18 W/m² | - |
| 1777944304 | 13.33° C | 63% | 1012.4 hPa | 0 mm | - | 23 W/m² | - |
| 1777944004 | 13.33° C | 63% | 1012.4 hPa | 0 mm | - | 30 W/m² | - |
| 1777943704 | 13.33° C | 64% | 1012.4 hPa | 0 mm | - | 35 W/m² | - |
| 1777943416 | 13.33° C | 63% | 1012.4 hPa | 0 mm | - | 44 W/m² | - |
| 1777943104 | 13.33° C | 62% | 1012.2 hPa | 0 mm | - | 54 W/m² | - |
| 1777942815 | 13.33° C | 62% | 1012.2 hPa | 0 mm | - | 56 W/m² | - |
| 1777942515 | 13.89° C | 62% | 1012.3 hPa | 0 mm | - | 46 W/m² | - |
| 1777942204 | 13.89° C | 61% | 1012.3 hPa | 0 mm | - | 40 W/m² | - |
| 1777941904 | 14.44° C | 58% | 1012.4 hPa | 0 mm | - | 42 W/m² | - |
| 1777941604 | 14.44° C | 56% | 1012.3 hPa | 0 mm | - | 42 W/m² | - |
* Rain latest hour (hover to see other rain measurements)
** Current wind speed in m/s (hover to see current wind gust speed)